Location: Madrid
(40.4167°N, 3.7036°W)
Time: 13:04:07
(UTC+00:00)

ISS - Pass Details

Date: 12 July 2024
Orbit: 410 x 424 km, 51.6° (Epoch: 14 July)

Event Time Altitude Azimuth Distance (km) Brightness Sun altitude
Rises 02:37:44 0° 307° (NW) 2,348 0.1 -20.0°
Reaches altitude 10° 02:39:50 10° 310° (NW) 1,485 -0.9 -19.8°
Maximum altitude 02:43:09 75° 36° (NE) 432 -3.7 -19.4°
Drops below altitude 10° 02:46:29 10° 122° (ESE) 1,485 -0.9 -19.0°
Sets 02:48:35 0° 124° (SE) 2,347 0.1 -18.8°
